GFSCGP_850_spd_024.txt.gz
Wind_Speed
6 4 18 27 16 8 10 11 10 5 10 11 22 24 21 22 24 20 27 32 39 43 43 39 38 36 27 23 19 25 23 19 21 28 33 35 37 31 27 24 24 22 16 16
4 19 12 9 6 10 14 16 19 6 9 15 18 28 24 23 23 28 33 34 36 41 40 35 25 23 26 27 26 26 29 24 25 31 33 38 35 28 24 24 21 14 17 18
11 6 8 15 12 16 16 19 12 8 12 22 9 19 8 15 14 21 27 36 33 29 34 36 30 26 30 32 28 23 24 26 30 30 32 34 33 25 22 21 19 15 14 15
10 11 14 14 16 18 19 12 13 16 13 13 8 19 22 14 22 16 20 28 33 37 39 39 37 37 35 28 20 21 22 24 28 27 28 30 34 31 26 20 16 17 16 16
11 9 4 14 17 15 19 10 16 13 8 15 16 6 25 10 16 17 15 30 31 32 36 37 32 35 30 21 21 21 20 20 24 20 21 23 25 25 21 17 19 19 20 19
14 17 14 12 12 11 6 9 15 12 2 8 14 11 9 14 15 8 9 21 31 33 30 34 35 25 23 24 21 19 18 21 19 18 18 20 22 21 20 19 20 19 16 14
7 13 11 13 12 10 4 1 3 2 5 16 12 10 21 9 8 15 16 23 34 32 26 23 17 22 28 26 22 20 21 22 21 21 23 21 21 19 18 18 17 15 12 11
5 5 6 2 1 7 7 9 5 7 4 4 12 9 7 16 20 37 34 34 25 16 15 18 24 29 27 24 22 23 24 26 25 24 22 21 21 15 17 16 13 9 10 10
5 3 6 9 6 4 4 10 5 6 15 1 5 8 9 19 24 21 20 12 16 20 23 27 27 26 24 23 24 26 26 28 26 25 23 21 16 16 14 12 9 7 8 9
4 4 4 6 7 4 7 5 5 3 7 6 5 6 8 7 11 12 12 11 21 25 27 28 27 24 22 22 24 26 27 28 26 23 21 16 12 11 10 8 8 7 7 8
3 2 4 4 4 6 3 1 3 3 4 8 3 6 11 11 13 18 8 21 32 32 32 30 26 23 22 24 27 28 28 26 23 19 15 14 12 7 5 3 6 7 9 8
2 1 3 8 11 12 4 6 5 3 6 5 2 12 17 8 12 12 14 25 30 34 33 29 27 26 27 28 26 26 27 24 21 18 16 14 9 6 4 3 5 11 11 11
3 2 4 9 2 0 4 3 2 4 5 16 8 7 12 3 12 6 18 25 30 35 33 32 31 29 29 27 25 27 25 22 20 18 16 11 7 6 4 6 7 8 9 10
3 3 5 5 5 7 6 9 6 1 3 11 16 15 25 16 13 3 18 28 32 36 38 35 32 31 28 26 26 25 23 21 20 17 14 9 8 8 5 10 7 14 15 9
3 5 6 12 16 16 14 15 10 9 8 4 6 14 17 14 11 14 26 30 31 32 35 36 34 33 30 28 26 23 21 21 22 16 13 8 5 5 10 13 12 13 10 7
8 4 4 16 18 18 18 14 14 13 13 11 18 21 18 14 3 14 27 32 29 31 33 36 35 33 31 28 27 24 22 21 20 16 12 6 6 10 12 11 14 12 11 7
8 4 2 7 14 8 6 13 11 5 8 4 7 6 14 6 8 5 21 30 31 32 34 37 36 34 32 28 27 26 24 19 18 18 10 7 8 10 13 13 11 12 9 9
6 4 3 5 9 5 3 11 9 13 11 9 12 18 13 3 10 10 4 25 32 35 35 37 35 34 31 28 27 24 24 19 17 16 11 11 9 13 14 12 12 11 10 10
11 4 2 3 3 4 3 8 7 6 5 4 11 9 9 9 16 10 12 14 35 40 37 36 35 34 31 31 28 25 26 22 19 16 15 12 12 16 15 12 13 11 12 13
2 9 7 2 4 3 2 12 16 9 3 6 13 7 3 9 4 2 11 6 22 27 36 37 36 35 33 33 31 26 28 22 21 18 15 13 14 16 14 10 9 9 11 12
2 2 10 8 3 4 6 17 32 6 1 22 20 18 6 7 4 3 3 9 12 18 33 36 38 37 35 34 31 26 26 22 21 20 12 16 15 13 12 10 9 8 10 11
3 3 2 2 2 2 15 18 5 6 14 21 25 17 13 18 6 7 9 9 7 10 30 37 39 38 35 34 30 26 23 24 22 22 17 18 16 13 11 9 10 10 8 8
2 3 3 4 2 7 20 15 24 23 20 20 25 9 28 22 20 24 27 21 12 10 30 39 39 37 36 33 29 28 23 25 22 25 21 20 18 15 11 9 14 12 9 8
2 5 1 3 3 7 23 26 24 23 23 24 19 27 36 29 28 27 33 28 20 17 29 38 37 37 37 34 29 27 25 25 21 28 24 23 18 13 8 10 10 9 9 9
2 3 5 4 7 6 15 21 23 23 25 37 24 35 33 34 32 32 37 36 30 20 15 24 35 35 34 33 29 27 26 26 22 29 25 24 20 16 10 11 12 10 7 5
5 2 2 2 9 6 10 10 20 22 27 38 21 28 30 31 30 30 36 31 32 31 20 17 32 34 31 34 30 29 29 29 23 30 27 25 22 19 12 12 14 11 9 6

GFSCGP_850_spd_027.txt.gz
Wind_Speed
7 5 15 19 16 10 5 6 2 4 7 13 18 27 21 16 24 26 34 37 40 47 45 45 48 45 41 38 36 27 30 31 32 29 34 38 37 34 31 26 22 22 22 20
2 17 8 3 5 11 11 10 8 6 11 5 10 21 16 12 16 26 27 29 34 36 44 34 32 29 25 25 27 27 29 30 31 31 34 37 34 32 25 21 21 21 18 19
6 6 9 9 4 6 5 9 9 6 9 16 9 20 12 10 17 29 35 37 38 34 35 39 34 35 34 30 31 31 27 24 27 29 35 34 26 22 23 24 25 24 17 17
7 9 8 6 12 13 15 4 7 5 5 9 6 15 20 20 20 13 22 29 32 37 42 35 37 33 30 29 32 29 27 25 25 28 29 27 27 26 27 24 21 15 15 16
7 3 4 13 11 6 6 11 9 10 8 4 4 4 28 8 14 20 20 29 42 46 41 39 38 35 32 26 25 31 28 24 21 21 20 22 24 24 22 19 15 12 15 15
10 17 6 7 10 8 4 7 9 6 3 6 12 9 27 10 15 9 9 23 32 31 27 26 31 33 36 28 21 25 24 19 15 14 15 16 22 24 21 19 14 14 16 17
1 15 16 10 7 5 4 4 2 2 4 13 12 13 23 5 4 6 7 18 26 29 30 27 29 29 17 15 20 20 19 17 15 15 16 18 20 20 19 16 15 16 16 16
0 5 8 4 8 6 6 9 4 6 7 6 13 13 9 10 14 24 25 29 28 30 31 31 22 12 13 19 21 20 19 19 19 20 20 20 19 18 16 14 14 15 14 12
1 6 3 4 3 4 2 4 8 4 4 2 5 8 10 11 19 8 13 16 28 26 22 16 12 17 22 21 20 20 20 22 22 21 20 20 19 16 14 15 14 12 10 9
3 3 4 5 2 5 6 3 3 1 4 5 6 7 11 2 13 5 8 9 18 15 15 16 19 23 22 21 22 22 21 25 23 22 20 17 15 13 13 13 12 10 7 6
3 1 4 3 3 4 2 3 3 4 5 4 3 7 6 13 5 9 14 19 17 20 21 23 25 24 23 24 24 24 26 26 24 21 18 16 13 12 11 9 9 9 7 9
2 3 4 8 6 5 4 3 2 3 9 4 3 7 11 3 7 8 17 13 20 25 27 28 27 27 26 27 27 27 27 26 22 18 15 14 11 8 8 7 7 9 11 12
2 2 4 8 3 3 1 4 4 1 2 6 5 6 5 8 9 12 9 7 23 29 31 30 28 28 29 30 29 27 26 24 20 17 16 14 10 7 6 6 7 12 12 12
6 4 5 5 6 3 6 11 4 4 3 5 19 11 25 14 17 14 2 6 10 33 33 31 29 30 31 30 29 27 25 21 19 19 16 11 8 7 5 8 8 11 13 9
4 5 5 9 12 14 13 17 16 11 8 5 9 10 14 13 17 14 17 18 17 24 32 32 32 31 30 29 30 27 24 23 21 19 16 10 6 7 7 10 7 17 15 7
5 3 3 11 14 11 17 20 19 16 14 10 10 24 9 14 17 10 19 25 25 21 30 33 32 32 31 30 29 27 24 25 23 19 18 8 6 7 11 14 14 14 11 7
6 3 3 7 9 12 10 16 19 11 8 13 10 13 10 11 11 9 2 24 30 27 34 35 33 32 31 30 27 26 25 25 22 18 15 8 8 9 11 13 15 14 10 7
7 4 3 7 5 5 4 3 5 12 16 16 8 9 15 13 19 6 2 15 22 29 36 34 33 31 29 27 26 25 24 23 18 17 14 11 7 9 14 14 13 13 8 7
13 7 3 3 4 10 12 4 4 7 5 3 5 10 10 14 8 1 6 10 17 25 33 33 33 31 30 27 27 26 26 22 19 17 14 12 10 15 15 13 13 11 9 8
5 15 5 2 4 4 3 6 14 8 5 5 8 9 7 8 5 4 10 6 9 21 30 31 31 31 30 29 29 27 25 22 20 17 15 11 11 14 15 11 12 9 8 9
2 4 10 6 4 6 4 12 15 6 2 13 14 16 9 2 3 8 12 8 5 19 27 30 32 32 31 30 30 27 27 25 21 17 12 11 13 15 13 9 8 7 7 9
2 2 3 4 5 4 7 15 4 4 7 10 18 16 11 12 13 9 15 17 3 18 28 31 32 32 32 30 30 27 28 24 22 17 13 12 15 14 12 8 8 6 5 6
1 1 2 2 2 6 23 20 22 6 7 22 20 13 5 24 24 15 9 7 6 18 29 31 33 33 33 32 30 28 25 24 23 20 18 14 14 13 12 9 7 8 6 6
2 0 1 3 5 6 20 18 24 35 27 30 17 9 19 32 30 23 18 11 7 19 33 34 34 34 35 33 31 24 24 26 23 19 20 17 13 14 12 7 8 6 6 6
2 6 6 4 6 8 11 23 31 31 24 26 19 16 25 33 33 29 27 23 15 14 24 32 33 35 35 32 31 26 25 27 23 19 22 19 16 15 10 7 8 7 4 2
3 4 3 3 13 9 10 22 23 24 26 22 20 22 29 34 31 29 33 31 24 15 15 21 31 34 33 32 31 27 26 27 23 20 25 21 19 15 10 7 12 9 5 3

GFSCGP_850_spd_030.txt.gz
Wind_Speed
6 4 14 15 16 5 4 2 1 3 4 4 17 21 16 13 21 22 30 34 38 42 45 45 43 39 33 32 31 25 27 26 26 27 30 33 35 36 36 35 28 24 20 19
5 10 8 5 7 10 6 1 3 5 8 4 7 12 9 8 14 22 29 30 33 39 43 41 39 33 35 33 28 27 26 25 25 29 31 32 32 36 35 24 19 17 19 20
6 8 3 7 5 5 4 9 3 6 8 12 8 18 12 8 16 27 31 33 38 37 40 39 35 33 32 35 33 32 29 32 30 30 30 31 31 27 23 22 18 20 18 16
5 7 6 6 9 7 5 3 1 2 3 8 2 9 15 15 18 14 19 29 32 37 37 38 35 36 37 35 35 30 27 27 27 27 29 30 27 24 21 18 17 20 18 14
11 4 3 5 6 7 9 8 8 7 6 3 3 5 13 5 11 12 16 31 36 45 44 44 43 43 39 37 36 29 23 25 26 25 24 21 19 16 14 16 19 19 15 18
24 7 5 7 7 9 6 6 4 1 2 7 7 6 21 9 12 7 15 25 32 31 30 29 27 22 25 26 28 28 24 24 22 19 15 15 12 13 18 21 23 15 20 19
10 14 11 5 3 2 5 5 2 1 2 12 12 9 24 4 6 4 9 15 18 18 20 23 21 23 23 24 19 13 14 16 15 14 13 12 10 11 16 20 18 14 17 15
3 2 6 5 11 7 7 7 5 6 6 5 6 12 8 11 13 18 14 18 24 27 23 20 19 20 15 9 10 14 17 17 17 16 17 15 13 13 14 13 13 11 11 11
2 4 5 2 2 9 4 4 7 3 3 1 5 7 8 16 10 8 9 19 24 25 21 20 17 9 7 13 16 17 18 19 19 20 20 18 16 15 14 13 12 12 12 10
3 4 7 6 5 5 4 4 3 1 4 5 6 6 6 6 2 4 8 11 27 25 12 10 10 12 17 19 19 19 19 20 21 20 19 19 18 16 14 14 15 13 10 8
4 0 5 2 3 4 1 1 2 2 5 4 2 5 6 15 4 8 10 20 28 11 13 14 17 21 21 20 21 21 20 22 22 20 20 19 17 16 15 14 12 9 8 7
1 1 4 5 5 5 2 3 1 4 8 4 3 6 6 6 7 8 13 23 15 4 15 21 25 25 24 23 23 23 23 22 21 20 17 16 15 12 11 10 9 9 10 11
1 1 3 5 3 5 2 3 3 1 0 5 4 7 5 9 14 18 14 19 5 7 14 26 27 26 25 25 25 26 24 23 20 18 16 14 13 10 9 8 7 12 13 14
1 2 5 5 2 2 4 8 8 3 3 5 10 9 22 19 12 16 21 19 4 8 13 21 28 26 26 26 27 27 25 22 19 17 16 14 11 8 7 8 10 14 13 11
4 4 3 8 11 8 8 13 13 15 13 8 3 2 16 14 15 18 23 21 11 14 17 21 26 28 29 29 29 27 24 21 19 19 16 12 11 8 6 9 10 14 14 8
6 4 2 11 10 11 14 17 16 15 19 16 14 15 16 19 20 17 19 21 16 21 24 24 24 29 31 31 30 27 25 21 21 20 16 13 9 6 7 9 11 18 13 7
5 2 1 4 5 4 11 16 22 18 14 13 14 11 15 13 12 8 17 20 18 25 28 27 27 30 31 31 30 28 25 24 21 18 15 12 10 8 13 14 18 14 11 7
3 6 3 3 2 3 6 10 12 15 11 15 8 15 12 10 22 29 25 16 18 24 27 28 28 30 29 30 28 26 25 25 20 15 13 10 9 11 14 16 14 13 10 8
14 4 2 3 3 9 12 2 5 5 5 10 15 16 13 22 21 10 8 12 18 20 25 26 26 28 27 28 26 25 26 22 18 15 12 11 10 12 13 15 15 13 9 9
11 13 6 3 3 4 1 3 11 10 7 3 3 7 10 9 4 4 9 10 14 15 20 24 25 26 26 26 25 26 25 21 16 13 11 11 10 13 12 11 12 9 8 6
1 4 12 8 4 6 5 8 9 5 1 8 8 11 12 6 7 6 13 13 11 13 12 22 25 27 25 26 27 26 23 20 16 13 10 10 9 12 11 10 10 8 7 8
2 2 3 3 4 6 12 12 5 4 7 10 12 10 11 14 9 8 15 15 13 6 13 22 28 29 26 27 28 25 22 18 17 14 11 9 12 13 11 8 8 7 6 7
3 2 3 2 2 8 17 18 29 33 20 8 8 10 7 2 10 15 11 18 16 7 15 25 29 30 29 29 27 25 21 20 17 14 13 12 13 12 10 8 5 6 6 5
3 6 2 3 3 7 15 31 11 12 24 16 19 12 9 9 16 21 18 20 22 17 24 25 31 30 30 28 28 23 19 20 18 16 14 12 12 10 9 8 5 5 3 3
4 5 5 4 5 10 12 28 21 29 28 29 25 19 15 15 19 21 19 13 13 14 20 27 31 30 30 26 26 24 20 21 20 17 16 14 12 10 7 7 6 4 4 4
3 3 3 3 11 10 11 22 25 31 28 27 26 23 19 22 24 20 21 18 11 8 12 21 26 29 28 25 25 24 22 20 21 18 17 16 14 11 8 6 9 8 5 6

GFSCGP_850_spd_033.txt.gz
Wind_Speed
2 8 16 18 19 20 16 9 21 18 10 21 25 28 24 24 30 32 33 33 34 36 34 34 44 41 37 32 27 26 23 22 22 22 24 26 27 29 31 31 31 26 20 16
5 15 14 12 13 17 21 20 12 9 10 7 15 21 18 17 20 27 30 32 34 35 34 35 40 37 35 34 30 26 24 23 26 26 24 23 24 27 27 28 25 17 15 16
15 15 7 10 16 18 17 22 21 11 10 14 14 23 23 21 23 28 33 35 35 35 35 38 40 35 30 28 27 25 26 24 23 26 26 23 23 23 23 24 21 17 16 15
13 13 12 15 12 18 18 10 13 19 15 13 4 12 13 12 17 17 23 28 32 33 33 43 42 38 33 27 27 26 28 28 28 26 26 24 23 22 21 16 15 15 15 16
19 14 10 15 13 12 17 15 11 6 9 12 20 12 19 14 22 19 18 26 31 34 36 34 35 38 36 36 35 32 29 28 26 21 21 20 20 19 15 13 15 18 17 15
22 25 14 16 13 9 10 16 17 15 11 14 18 11 23 18 21 20 23 28 25 26 24 29 28 24 21 20 19 21 23 25 23 19 16 17 15 13 14 18 21 20 18 18
13 16 11 18 16 11 9 11 9 11 13 18 6 13 23 3 9 12 9 16 22 20 18 19 20 20 18 18 19 21 19 17 16 15 15 14 12 11 16 21 23 21 17 19
4 4 3 12 20 18 14 15 9 16 14 19 13 12 8 9 10 13 16 19 18 19 17 19 18 16 16 16 14 10 12 14 17 18 18 16 15 17 20 22 20 15 20 17
5 2 6 5 6 13 13 10 19 6 4 11 12 19 17 16 16 10 12 13 20 20 21 15 12 14 10 8 12 16 19 21 22 21 20 20 19 20 19 18 18 19 16 14
2 6 2 7 9 4 8 5 10 9 6 8 9 18 9 7 7 3 12 18 25 25 13 4 9 11 14 18 21 22 21 22 22 22 22 22 21 20 19 19 18 16 14 12
6 3 3 5 6 7 9 7 6 7 11 3 3 3 2 6 11 11 14 22 24 21 5 5 11 18 21 22 23 23 23 24 24 24 24 23 22 20 18 16 15 14 12 10
4 3 5 10 8 7 7 4 9 8 17 10 8 5 4 12 10 15 19 24 29 15 5 3 14 22 23 24 24 24 25 25 24 24 24 22 19 18 17 16 13 12 11 11
3 1 6 7 4 4 1 3 2 5 6 12 12 6 9 7 19 21 25 29 27 15 5 5 14 18 21 23 25 25 26 26 25 24 22 20 18 15 14 13 12 12 14 15
5 6 10 9 8 8 10 10 8 5 8 13 16 23 26 20 19 22 30 25 25 13 3 6 11 13 17 22 25 27 28 26 24 22 20 18 17 16 13 12 13 16 16 15
4 9 11 14 15 14 17 19 17 14 14 11 13 24 23 17 19 22 26 24 24 14 6 10 12 14 16 20 24 26 27 25 22 20 20 19 16 13 11 12 16 17 17 12
7 7 10 12 16 17 20 20 20 19 18 18 20 29 20 26 29 24 29 26 24 16 10 13 14 15 19 21 22 25 25 23 23 22 19 16 14 11 12 13 16 16 15 10
4 4 5 11 8 9 13 22 24 19 17 16 20 24 22 20 18 19 23 22 26 19 11 15 18 18 20 22 22 22 23 23 23 19 16 14 13 12 13 12 18 19 13 10
5 9 6 3 2 7 6 1 6 13 16 17 20 24 21 22 25 27 27 30 29 14 12 18 18 19 21 22 22 21 23 23 19 14 12 10 11 12 16 17 20 16 11 8
12 5 3 3 7 12 16 3 6 4 10 10 17 22 17 22 22 30 26 26 18 12 13 19 19 21 22 23 23 24 22 18 15 12 10 10 10 15 16 18 16 13 10 9
9 12 5 5 5 5 4 5 7 8 10 13 18 15 16 17 10 12 18 10 7 10 15 19 20 21 23 23 26 24 21 17 14 11 9 11 10 14 14 16 14 13 10 9
2 3 11 9 5 7 3 8 8 4 2 15 7 7 8 9 13 16 15 7 7 11 16 19 22 22 23 26 25 23 20 18 12 9 12 11 11 14 13 13 14 10 8 8
3 3 2 5 6 6 8 10 5 6 23 16 20 10 13 18 24 26 21 9 9 13 18 21 22 23 25 25 24 22 23 16 12 10 12 12 13 15 12 10 10 7 6 7
2 2 2 3 3 7 16 16 33 35 28 32 20 12 14 16 19 16 16 19 10 9 19 21 23 24 25 25 25 24 21 17 14 12 12 14 14 13 11 7 7 5 6 7
4 6 3 3 3 12 17 25 27 5 10 1 6 4 1 3 5 4 6 12 19 10 19 22 24 27 27 25 25 22 20 16 15 13 14 15 14 12 9 7 4 4 5 6
4 6 5 5 7 13 8 23 25 20 23 18 13 16 14 6 4 2 3 9 15 8 18 20 23 27 27 26 24 23 20 17 16 15 14 13 12 10 8 7 6 7 9 7
7 4 3 2 14 7 11 20 24 21 24 21 18 19 17 12 6 5 5 6 5 5 5 14 22 24 26 27 25 23 20 18 18 17 15 13 11 9 7 7 10 11 11 10

GFSCGP_850_spd_036.txt.gz
Wind_Speed
15 12 14 15 19 25 25 28 22 19 22 26 26 34 31 31 37 34 32 29 29 31 31 29 27 26 26 26 33 32 33 31 29 25 21 19 22 22 21 20 22 22 20 17
12 16 17 15 14 20 22 26 31 20 15 20 25 32 29 27 30 36 36 39 37 36 35 33 32 29 27 29 31 31 32 33 26 22 21 18 16 15 16 16 21 18 16 16
15 16 10 10 14 19 23 25 25 27 20 17 21 27 27 22 27 31 33 34 35 37 37 35 33 31 29 30 30 25 26 28 23 21 19 19 16 17 18 18 16 16 16 18
15 11 13 16 19 18 21 22 26 24 22 23 21 20 23 25 29 29 33 35 37 37 37 36 36 35 33 29 23 22 22 21 25 23 21 19 16 14 14 16 15 15 16 16
21 19 16 18 20 19 20 18 24 23 23 25 30 19 19 19 21 19 18 27 33 35 34 36 37 34 30 27 26 27 32 30 27 26 21 19 16 12 11 12 15 17 17 18
21 22 18 22 19 17 14 17 20 19 14 18 24 22 20 21 26 22 19 25 28 29 28 27 29 27 24 20 21 24 27 27 27 24 20 17 17 16 16 16 19 19 18 18
18 14 14 15 19 20 16 16 11 15 18 19 21 20 19 7 1 1 8 18 10 14 17 17 16 16 18 15 16 16 18 20 21 19 17 17 17 17 17 18 18 20 18 18
7 7 14 7 18 21 21 19 15 20 17 20 26 23 16 16 15 18 14 12 12 13 14 14 16 14 15 15 14 15 14 15 16 16 17 17 18 17 18 19 20 18 17 17
9 6 12 10 12 14 20 20 21 24 19 16 18 26 26 19 11 9 3 6 9 12 14 17 14 11 11 11 13 11 13 15 17 18 19 20 19 20 21 22 19 19 19 18
7 10 10 4 7 13 8 13 4 15 13 20 17 22 15 24 27 15 0 9 16 18 14 7 4 10 10 11 13 15 17 19 20 21 21 21 22 21 23 22 20 20 18 17
14 7 11 13 6 4 5 9 12 14 17 13 12 16 19 14 11 8 6 14 18 19 12 5 2 8 14 16 18 19 20 21 21 22 22 22 21 22 21 20 19 17 16 14
13 6 11 16 10 5 8 11 5 5 20 16 10 3 11 18 14 6 11 19 21 20 10 3 3 11 17 19 19 20 21 22 21 22 22 21 21 21 20 18 16 15 13 11
8 5 10 9 8 4 8 14 13 14 14 14 12 4 14 10 6 11 16 21 22 21 10 3 6 12 18 19 20 21 22 22 22 22 22 21 20 19 18 16 15 13 13 13
12 13 15 13 18 14 11 12 12 13 10 13 16 20 8 11 12 15 18 24 23 21 10 2 5 11 16 19 20 21 22 23 23 22 21 19 17 16 15 14 13 13 14 14
5 14 18 18 19 17 18 18 17 17 19 18 18 24 19 17 16 18 25 28 22 18 12 3 5 11 16 19 22 22 22 22 21 20 19 17 16 15 14 14 14 15 15 12
4 6 13 20 18 18 22 21 21 21 20 21 22 27 22 25 28 26 25 23 20 17 15 5 10 13 18 21 23 23 22 21 19 18 18 17 15 14 13 14 15 16 14 11
4 4 9 13 11 13 16 17 19 22 21 21 21 23 21 23 20 20 24 23 20 19 15 10 15 16 19 21 23 23 22 20 19 18 17 15 13 12 12 14 15 16 13 12
5 9 9 6 2 9 11 2 9 13 13 15 22 22 23 22 25 24 23 23 24 19 14 13 18 20 21 22 23 22 21 20 19 17 15 12 11 11 12 14 16 14 11 10
12 6 5 4 9 14 19 7 4 3 12 16 21 19 18 20 18 21 20 22 23 19 11 17 20 21 25 24 24 22 22 20 18 15 13 11 11 12 14 17 17 13 11 9
8 12 7 4 4 5 3 6 3 10 17 8 16 18 14 11 11 9 3 11 11 9 13 21 22 24 26 26 24 23 22 20 17 14 13 11 12 15 15 16 14 11 10 9
2 3 12 12 6 6 2 4 8 5 5 15 14 15 19 10 13 14 15 20 18 7 18 21 24 26 26 26 25 24 22 19 16 13 13 12 13 15 15 15 13 11 11 10
3 4 2 6 6 5 5 7 5 13 28 25 20 18 18 18 17 19 20 19 17 10 20 22 24 25 26 26 25 25 22 19 14 13 13 12 15 14 14 14 12 10 10 9
3 2 3 3 3 12 21 14 25 37 37 32 19 19 18 21 18 17 15 12 7 11 19 22 23 25 25 25 24 26 23 18 15 15 14 14 15 13 11 10 10 9 9 8
4 4 3 3 1 13 21 15 24 28 4 10 15 15 11 12 11 10 9 10 9 8 16 21 22 24 25 24 24 25 23 20 17 16 15 15 14 12 9 7 7 8 7 7
4 3 4 5 11 14 6 20 25 23 15 12 9 8 6 7 4 4 1 7 10 10 14 21 22 23 24 25 25 24 23 20 18 17 15 14 12 11 8 7 5 7 9 8
4 3 2 3 18 9 11 18 25 23 17 16 13 11 10 9 8 6 2 6 10 8 15 20 22 23 23 25 25 24 22 20 18 18 15 13 12 9 8 7 9 9 9 8

GFSCGP_850_spd_042.txt.gz
Wind_Speed
13 12 13 17 17 20 19 21 25 26 26 26 22 25 27 24 31 30 29 29 36 45 40 35 45 35 42 39 33 29 32 28 24 25 29 33 36 34 32 30 29 28 31 35
13 15 15 15 17 19 20 23 25 24 24 21 24 28 29 21 21 25 29 33 34 32 32 40 37 33 38 29 26 26 29 31 29 31 35 34 28 26 26 27 27 28 31 34
15 17 20 19 19 22 20 19 22 23 20 20 24 26 26 27 27 27 30 31 34 34 36 36 29 31 21 22 25 26 30 31 29 30 33 32 30 31 22 26 25 26 31 34
15 19 20 20 22 19 21 20 23 22 19 17 18 18 21 22 24 21 29 35 27 27 32 38 32 31 29 27 23 22 25 28 31 30 34 33 32 33 32 23 25 27 31 34
18 19 19 21 23 22 25 23 21 22 22 21 22 15 21 21 24 23 20 31 30 28 31 40 40 34 28 31 34 36 36 36 36 36 31 36 31 27 20 24 25 26 26 26
20 21 15 17 21 22 22 23 25 22 18 17 24 20 22 19 22 24 22 27 34 37 41 35 36 42 47 40 35 33 36 39 39 38 34 32 29 29 24 25 29 31 28 28
17 17 8 13 17 20 14 15 13 15 15 17 22 21 18 23 23 27 23 27 30 31 28 30 36 40 42 41 42 41 36 37 37 36 32 30 31 27 25 29 31 29 27 27
12 15 7 4 21 20 10 6 7 12 16 18 20 15 17 20 23 29 32 36 30 22 24 32 22 26 31 29 32 34 30 27 30 33 33 32 29 27 26 32 29 24 23 22
14 15 19 20 17 17 20 13 12 12 17 16 18 24 20 22 22 21 26 33 25 24 24 17 15 20 23 23 24 28 27 26 29 28 27 29 26 27 28 22 19 15 17 19
14 21 19 23 11 17 24 18 10 1 5 17 17 21 14 16 16 21 22 20 32 22 15 17 16 17 17 18 18 25 25 24 23 23 24 24 26 26 22 20 22 18 21 20
18 14 17 20 19 16 11 10 6 7 6 10 14 12 8 21 24 27 26 26 7 10 15 19 15 16 17 18 19 24 21 20 22 22 22 24 26 25 24 26 23 25 21 19
10 7 16 22 25 21 19 16 11 9 14 13 12 18 16 21 26 30 39 10 20 9 2 12 12 6 10 14 15 17 20 21 23 25 25 27 28 28 28 24 25 24 23 20
8 4 10 14 18 8 7 14 17 15 9 15 12 14 15 21 23 39 35 27 29 16 12 10 15 17 18 23 21 25 24 24 24 27 28 28 26 26 26 25 21 21 18 17
6 6 14 15 21 3 6 19 25 18 10 14 14 19 8 8 11 24 34 35 24 18 10 7 13 18 19 28 28 25 27 29 27 26 27 27 27 26 25 22 21 20 18 16
6 8 15 20 23 22 21 26 30 23 18 18 16 18 12 8 7 20 31 44 21 15 4 6 11 11 22 31 30 30 28 29 28 28 27 26 25 24 22 20 19 15 16 14
3 5 14 18 19 21 24 25 27 25 20 22 18 17 13 9 16 28 39 24 14 13 12 2 11 12 23 32 30 31 30 29 30 28 25 23 22 21 20 18 16 16 16 16
3 5 9 15 15 15 14 16 17 24 17 20 18 12 14 9 14 18 13 18 13 12 17 4 10 15 17 27 31 30 30 28 27 25 23 21 19 17 17 17 18 18 16 15
5 9 7 10 13 11 8 17 13 17 17 22 21 16 19 20 26 17 15 16 15 16 13 2 12 19 19 20 29 29 27 24 23 22 22 22 19 18 17 19 16 17 15 15
8 2 4 4 7 13 16 8 9 12 22 16 15 18 17 25 25 21 12 15 16 15 10 12 13 26 16 25 29 28 25 24 22 22 23 19 16 20 18 19 17 16 16 12
5 6 3 3 4 4 6 13 23 13 12 13 13 14 18 25 9 7 22 28 3 8 13 8 17 31 27 24 27 26 25 23 22 22 21 17 12 17 20 17 16 14 11 11
2 2 5 9 5 6 4 6 7 5 7 24 27 23 24 15 17 27 21 22 22 14 17 12 27 34 29 29 29 26 24 22 25 22 16 16 23 16 21 18 15 14 13 11
3 2 2 3 4 3 5 6 3 9 29 29 33 29 26 26 27 21 23 26 28 18 10 7 32 33 31 27 28 24 23 25 20 18 17 18 12 20 17 14 15 15 12 14
3 5 2 4 4 14 21 18 16 22 21 32 33 33 22 21 24 23 24 28 28 18 14 19 32 32 26 30 26 28 28 25 21 20 19 18 15 23 16 13 13 14 14 13
7 5 3 3 1 12 20 14 20 15 23 30 25 16 9 15 19 21 26 27 20 15 13 27 28 31 32 29 26 27 23 21 21 20 19 19 17 12 12 11 12 10 10 13
11 8 7 4 8 11 3 19 12 19 22 23 19 15 15 17 20 21 25 20 12 13 13 32 30 30 31 27 29 24 25 23 22 21 19 18 15 14 13 10 9 8 9 10
5 5 3 3 8 6 18 22 11 17 21 21 16 18 16 16 19 22 22 17 11 11 22 21 31 32 28 27 29 29 24 25 22 21 19 17 14 12 8 9 11 10 9 8

GFSCGP_850_spd_045.txt.gz
Wind_Speed
11 5 5 11 10 10 12 15 13 15 12 13 11 17 19 17 21 23 33 35 35 38 47 45 42 38 27 34 42 40 38 33 34 34 32 33 34 31 30 30 30 30 34 31
6 5 8 13 13 13 10 14 15 13 10 12 13 18 19 16 16 24 23 32 38 39 38 40 41 48 43 35 41 40 39 40 38 34 31 29 29 33 34 34 33 34 33 35
6 11 14 16 14 15 12 14 16 19 13 13 12 15 21 20 18 25 30 28 23 24 36 41 41 32 30 28 39 40 41 39 38 32 28 26 30 36 35 36 29 31 32 32
6 10 14 13 12 12 15 11 15 17 13 11 5 15 14 19 21 13 21 27 29 31 32 36 47 42 38 24 24 37 35 31 31 28 26 29 31 33 37 37 27 33 33 30
11 10 12 11 9 15 16 15 19 15 17 13 12 7 13 7 18 15 12 29 32 34 34 29 42 38 37 31 22 26 26 27 28 30 32 33 32 32 34 27 28 33 33 30
10 8 4 4 8 8 12 15 16 11 9 12 15 10 19 11 18 19 14 25 32 37 36 35 33 31 36 39 37 32 26 28 31 34 35 32 32 29 29 24 28 33 32 30
7 8 5 4 2 5 7 4 5 4 4 15 13 12 18 11 15 13 12 22 32 37 34 31 42 43 42 41 42 40 41 39 35 34 34 34 35 30 28 28 31 34 34 29
3 7 5 2 6 6 9 4 4 5 4 7 19 7 10 10 15 28 31 29 34 34 35 40 33 34 46 45 44 40 36 35 35 36 38 40 34 29 26 34 34 35 31 27
6 6 8 13 15 12 4 3 9 5 10 4 5 11 13 10 16 20 29 36 37 46 41 39 38 32 35 46 45 37 37 37 36 36 36 36 33 29 32 35 29 32 27 22
6 16 5 12 13 10 7 1 2 4 3 3 5 11 5 14 16 18 20 27 39 44 39 39 35 30 21 22 23 28 36 38 34 29 30 31 29 29 33 29 29 26 20 17
7 2 10 10 4 13 13 2 4 4 2 3 4 2 3 8 11 15 18 31 38 37 38 31 20 21 23 20 23 29 26 31 26 27 25 23 23 26 27 25 22 19 18 19
3 4 10 20 20 14 12 6 3 1 3 4 4 8 6 4 7 10 21 27 41 40 31 34 22 25 18 23 23 24 31 27 25 22 19 19 23 27 26 23 23 21 20 19
2 3 6 9 4 4 2 10 5 5 2 7 5 5 5 2 5 13 16 28 35 35 35 37 35 45 17 19 27 31 31 28 25 20 23 25 28 27 27 26 23 24 21 21
6 4 7 8 13 11 14 12 13 4 2 12 11 13 17 5 3 9 21 25 30 38 41 30 42 38 24 23 27 30 30 29 25 27 27 27 29 29 27 28 27 22 22 18
2 5 11 17 20 21 19 20 18 16 18 13 22 19 20 9 4 4 22 20 29 45 51 44 23 28 30 30 35 32 32 30 30 29 30 31 27 27 27 24 21 22 22 19
5 3 5 17 18 18 20 14 16 18 17 10 11 8 19 11 14 12 26 26 27 41 45 30 16 12 15 26 28 36 33 34 35 30 28 28 30 27 26 24 22 20 18 18
1 3 4 5 8 12 8 3 6 8 9 6 4 7 12 11 9 13 27 34 36 31 30 26 15 11 15 39 35 35 37 33 36 35 32 30 27 26 23 21 19 19 18 20
6 5 3 5 6 2 1 14 9 11 9 10 7 9 12 17 27 32 25 23 25 24 17 20 16 8 14 35 39 40 41 39 34 32 29 27 25 24 20 20 21 20 19 18
5 2 3 3 3 11 7 7 6 8 14 5 10 15 18 28 30 23 19 29 29 24 20 21 21 1 13 22 37 42 39 37 34 31 29 25 24 22 22 24 22 20 18 16
7 5 2 3 4 3 4 7 13 8 5 11 14 12 16 22 9 11 34 35 37 31 30 33 25 4 31 23 44 38 34 30 31 31 31 23 21 21 23 22 22 18 15 15
3 2 6 6 5 5 0 10 15 1 3 21 23 24 22 11 14 34 41 41 35 33 35 34 29 12 34 36 32 35 31 30 31 31 21 23 19 20 22 21 18 14 13 15
3 2 3 3 3 6 4 10 2 6 23 22 20 27 28 32 36 35 36 34 36 37 37 30 29 16 28 36 36 32 30 33 31 26 23 20 20 23 22 20 16 16 14 16
2 4 2 4 4 3 14 10 13 27 23 15 24 30 32 34 27 25 30 29 30 34 34 24 27 19 24 30 28 33 40 33 31 26 22 21 20 23 20 18 20 18 15 17
4 4 3 3 5 7 10 11 23 19 21 23 25 28 28 25 23 21 23 26 29 32 26 25 5 27 19 21 28 32 31 30 28 25 24 26 21 21 17 16 16 18 17 16
12 5 3 5 9 8 7 18 22 19 15 25 23 21 19 21 23 23 26 26 25 23 19 20 29 36 29 30 32 29 28 29 27 23 21 25 23 19 18 16 16 15 14 16
2 3 3 3 5 5 10 19 17 16 21 21 21 21 16 17 20 22 24 24 21 18 9 20 16 27 34 35 30 27 29 27 24 23 24 20 16 16 15 14 14 14 14 14

GFSCGP_850_spd_048.txt.gz
Wind_Speed
7 3 4 11 9 12 7 10 7 5 8 6 8 15 14 9 12 14 24 28 33 31 39 45 43 36 36 37 25 42 42 38 39 48 43 40 38 38 37 35 32 29 30 32
6 3 3 5 7 6 8 5 7 6 7 11 12 21 18 8 7 16 23 28 30 35 34 38 45 44 40 38 33 35 40 45 45 49 44 41 40 41 36 34 30 28 28 32
3 7 8 8 6 7 5 5 8 8 12 8 6 17 16 15 8 13 19 26 29 30 32 34 32 38 39 37 37 36 33 41 50 50 45 46 41 39 34 33 32 31 33 32
6 7 5 7 3 3 3 7 10 12 9 4 3 13 16 12 14 7 18 21 30 31 32 35 33 32 28 38 39 28 29 30 49 51 45 45 44 37 32 31 28 29 33 30
10 5 11 3 1 2 6 6 6 9 10 4 9 6 14 5 13 15 13 27 31 34 36 35 34 33 31 30 42 39 32 25 40 48 43 37 35 32 28 27 30 29 31 33
8 5 4 5 2 1 3 4 6 4 3 6 9 8 26 12 9 14 12 21 22 24 25 28 30 34 30 30 31 34 28 28 32 41 38 37 34 30 30 31 30 27 26 28
3 3 3 3 1 3 1 4 4 5 3 5 2 5 19 9 3 2 9 19 27 27 28 30 28 31 31 29 33 35 32 32 33 36 36 36 34 34 33 31 26 25 23 27
3 6 2 2 4 5 5 6 4 4 6 10 13 7 5 7 4 6 11 16 26 29 31 32 30 29 31 32 33 39 45 43 43 44 44 43 41 37 35 32 26 24 25 29
3 5 8 6 3 2 2 4 7 3 3 5 5 7 6 5 6 10 15 18 27 35 36 36 31 30 31 34 34 37 42 47 46 48 44 43 38 37 37 32 25 23 24 28
3 7 4 2 6 9 6 2 2 2 3 5 5 5 6 8 8 10 13 16 29 33 38 35 33 29 24 27 30 33 37 46 42 43 38 35 35 34 34 30 24 25 23 27
1 2 5 4 5 13 3 2 2 2 3 4 5 5 6 8 10 8 12 21 27 37 39 31 33 31 30 28 25 35 37 40 41 37 34 36 32 30 31 27 24 23 24 23
1 1 4 10 20 9 4 4 5 3 3 3 3 8 10 11 12 7 14 27 32 32 29 26 29 33 30 33 25 25 37 34 34 36 35 28 29 29 28 25 23 23 22 20
1 1 5 7 3 3 2 4 4 4 2 6 4 8 5 11 10 13 14 26 31 32 22 15 28 35 32 34 25 20 29 31 29 27 28 27 26 26 25 23 24 22 22 22
6 2 6 7 15 10 13 15 15 9 4 6 14 19 17 20 15 10 15 15 26 29 24 18 30 33 36 30 24 15 29 27 29 29 27 24 25 26 27 27 26 26 24 22
6 5 10 19 21 20 19 19 21 16 15 12 18 16 17 9 17 12 24 25 26 30 29 26 40 42 39 35 24 17 32 36 34 29 22 25 28 26 29 27 27 26 26 24
3 5 6 15 18 16 17 18 20 19 14 9 5 11 11 15 19 14 20 23 24 25 39 43 51 33 38 35 25 26 30 30 31 26 27 28 29 29 31 32 30 27 24 23
5 3 3 5 8 13 6 4 4 3 2 3 6 10 9 16 17 19 29 31 21 27 26 26 24 17 28 20 26 33 26 32 31 30 30 32 33 30 29 29 28 28 26 22
6 4 3 5 6 3 2 6 5 8 11 12 12 8 11 17 30 30 27 10 23 36 34 34 33 17 18 9 14 42 33 33 32 34 36 30 32 33 32 29 26 22 24 23
5 3 3 2 2 7 2 4 3 3 17 12 6 12 18 27 30 30 6 27 37 38 33 36 31 25 15 11 13 35 24 37 39 36 35 36 35 35 29 26 24 23 27 24
3 4 4 1 3 4 3 4 5 7 9 2 13 16 20 24 13 17 35 47 42 34 34 39 33 26 23 3 23 16 30 38 36 37 35 32 29 29 27 27 27 26 21 21
3 4 9 5 5 6 4 4 5 0 6 20 21 24 21 14 14 33 42 43 27 28 33 35 30 24 10 18 31 31 41 38 36 34 32 29 27 27 27 28 26 24 22 20
3 2 3 3 4 5 1 1 1 6 30 27 25 21 23 29 32 30 30 28 25 28 33 32 24 20 22 9 9 37 39 37 35 32 31 28 29 27 28 26 27 21 20 19
2 5 3 5 5 5 14 13 16 21 26 29 25 25 27 29 30 28 29 28 28 28 28 29 24 11 15 9 6 35 37 35 36 36 32 30 28 29 27 25 22 21 19 20
5 2 3 1 6 14 15 17 19 23 26 21 22 31 27 29 25 28 31 31 30 24 25 19 12 14 25 14 22 32 32 37 35 35 29 25 29 29 26 23 21 19 18 18
11 5 4 7 13 14 10 15 25 22 23 18 30 23 23 22 23 25 28 29 26 22 18 11 10 12 14 25 34 37 38 35 33 31 29 30 30 28 27 24 22 16 15 13
4 3 3 3 8 8 10 19 23 22 16 24 22 22 22 20 22 23 26 23 22 18 7 8 11 8 11 26 41 38 33 33 32 30 28 28 26 26 25 22 21 17 14 13